Marshfield, MA

9:52 AM EDT on April 24, 2018 (GMT -0400)
Marshfield

Weather History for KGHG - February, 2014

Change the Weather History Date:

Friday, February 14, 2014

  Actual Average (KPYM) Record (KPYM)
Temperature  
Mean Temperature 36 °F -  
Max Temperature 39 °F 40 °F 63 °F (1951)
Min Temperature 32 °F 16 °F -9 °F (2015)
Degree Days  
Heating Degree Days 30    
Moisture  
Dew Point 29 °F    
Average Humidity 79    
Maximum Humidity 100    
Minimum Humidity 60    
Precipitation  
Precipitation 0.19 in - - ()
Sea Level Pressure  
Sea Level Pressure 29.20 in    
Wind  
Wind Speed 11 mph (West)    
Max Wind Speed 21 mph    
Max Gust Speed 44 mph    
Visibility 8 miles    
Events Rain , Snow    
Averages and records for this station are not official NWS values.
T = Trace of Precipitation, MM = Missing Value Source: NWS Daily Summary

Daily Weather History Graph

Daily Weather History Graph

Search for Another Location

Airport or City:

Astronomy

Feb. 14, 2014 Rise Set
Actual Time 6:40 AM EST 5:14 PM EST
Civil Twilight 6:11 AM EST 5:42 PM EST
Nautical Twilight 5:38 AM EST 6:15 PM EST
Astronomical Twilight 5:06 AM EST 6:48 PM EST
Moon 5:15 PM EST (2/14) 6:04 AM EST (2/14)
Length of Visible Light 11h 31m
Length of Day
10h 34m
Full, 100% of the Moon is Illuminated
Feb 14
Full
Feb 14
Full
Feb 22
Last Quarter
Mar 1
New
Mar 8
First Quarter

Hourly Weather History & Observations

Time (EST) Temp. Windchill Dew Point Humidity Pressure Visibility Wind Dir Wind Speed Gust Speed Precip Events Conditions
12:15 AM 37.4 °F 30.3 °F 37.4 °F 100% 28.97 in 1.2 mi North 10.4 mph 17.3 mph 0.07 in Rain Heavy Rain
12:35 AM 37.4 °F 32.1 °F 37.4 °F 100% 28.97 in 1.2 mi North 6.9 mph 16.1 mph 0.13 in Rain Rain
12:55 AM 39.2 °F 32.5 °F 39.2 °F 100% 28.95 in 1.5 mi NW 10.4 mph 16.1 mph 0.15 in Rain Light Rain
1:15 AM 39.2 °F 31.6 °F 39.2 °F 100% 28.90 in 1.5 mi NNW 12.7 mph 23.0 mph N/A   Light Drizzle
1:35 AM 39.2 °F 33.6 °F 39.2 °F 100% 28.91 in 1.8 mi NNW 8.1 mph - N/A   Light Drizzle
1:55 AM 39.2 °F 35.0 °F 39.2 °F 100% 28.91 in 3.0 mi NW 5.8 mph - N/A   Light Drizzle
2:15 AM 39.2 °F 33.6 °F 39.2 °F 100% 28.90 in 3.0 mi NNW 8.1 mph - N/A   Light Drizzle
2:35 AM 39.2 °F 33.6 °F 39.2 °F 100% 28.88 in 0.8 mi NNW 8.1 mph - N/A   Overcast
2:55 AM 39.2 °F 33.6 °F 37.4 °F 93% 28.87 in 1.5 mi NW 8.1 mph 16.1 mph 0.01 in Rain Light Rain
3:15 AM 37.4 °F 30.8 °F 37.4 °F 100% 28.86 in 1.5 mi NW 9.2 mph 16.1 mph N/A Rain Light Rain
3:35 AM 37.4 °F 32.1 °F 37.4 °F 100% 28.85 in 1.5 mi NW 6.9 mph - N/A   Heavy Drizzle
3:55 AM 37.4 °F 32.8 °F 37.4 °F 100% 28.85 in 1.8 mi NNW 5.8 mph - N/A   Drizzle
4:15 AM 37.4 °F 32.8 °F 37.4 °F 100% 28.85 in 0.8 mi West 5.8 mph - N/A Rain Light Rain
4:35 AM 37.4 °F 33.8 °F 37.4 °F 100% 28.84 in 0.8 mi West 4.6 mph - N/A   Drizzle
4:55 AM 35.6 °F 30.7 °F 35.6 °F 100% 28.83 in 2.0 mi WNW 5.8 mph - N/A   Drizzle
5:15 AM 35.6 °F 31.7 °F 35.6 °F 100% 28.82 in 3.0 mi WNW 4.6 mph - N/A Rain Light Rain
5:35 AM 35.6 °F 31.7 °F 35.6 °F 100% 28.82 in 4.0 mi West 4.6 mph - N/A Rain Light Rain
5:55 AM 35.6 °F 30.7 °F 33.8 °F 93% 28.82 in 3.0 mi WNW 5.8 mph - N/A Rain Light Rain
6:15 AM 33.8 °F 28.6 °F 33.8 °F 100% 28.83 in 3.0 mi West 5.8 mph - N/A Rain Light Rain
6:35 AM 33.8 °F 26.4 °F 33.8 °F 100% 28.84 in 5.0 mi West 9.2 mph - 0.01 in Snow Light Snow
6:55 AM 33.8 °F 27.0 °F 33.8 °F 100% 28.84 in 1.2 mi West 8.1 mph 17.3 mph 0.02 in Snow Light Snow
7:15 AM 33.8 °F 25.8 °F 33.8 °F 100% 28.86 in 7.0 mi West 10.4 mph 17.3 mph 0.01 in   Light Drizzle
7:35 AM 33.8 °F 26.4 °F 33.8 °F 100% 28.88 in 10.0 mi West 9.2 mph - 0.01 in   Overcast
7:55 AM 33.8 °F 26.4 °F 33.8 °F 100% 28.90 in 10.0 mi West 9.2 mph - 0.01 in   Overcast
8:15 AM 35.6 °F 28.0 °F 33.8 °F 93% 28.91 in 10.0 mi West 10.4 mph - N/A   Overcast
8:35 AM 35.6 °F 26.2 °F 33.8 °F 93% 28.93 in 10.0 mi West 15.0 mph 20.7 mph N/A   Overcast
8:55 AM 35.6 °F 27.1 °F 32.0 °F 87% 28.95 in 10.0 mi WSW 12.7 mph 23.0 mph N/A   Overcast
9:15 AM 33.8 °F 25.3 °F 32.0 °F 93% 28.97 in 10.0 mi WSW 11.5 mph 20.7 mph N/A   Overcast
9:35 AM 33.8 °F 25.3 °F 32.0 °F 93% 28.99 in 10.0 mi WSW 11.5 mph 32.2 mph N/A   Overcast
9:55 AM 33.8 °F 23.2 °F 32.0 °F 93% 29.01 in 5.0 mi West 17.3 mph 25.3 mph N/A Rain Light Rain
10:15 AM 33.8 °F 22.8 °F 28.4 °F 81% 29.03 in 9.0 mi West 18.4 mph 32.2 mph N/A Rain Light Rain
10:35 AM 32.0 °F 20.5 °F 26.6 °F 80% 29.06 in 9.0 mi WSW 18.4 mph 29.9 mph N/A Rain Light Rain
10:55 AM 33.8 °F 23.2 °F 24.8 °F 70% 29.08 in 10.0 mi West 17.3 mph 32.2 mph N/A   Scattered Clouds
11:15 AM 33.8 °F 22.8 °F 24.8 °F 70% 29.09 in 10.0 mi WSW 18.4 mph 32.2 mph N/A   Partly Cloudy
11:35 AM 33.8 °F 23.5 °F 23.0 °F 65% 29.11 in 10.0 mi WSW 16.1 mph 39.1 mph N/A   Partly Cloudy
11:55 AM 35.6 °F 24.5 °F 23.0 °F 60% 29.14 in 10.0 mi WSW 20.7 mph 43.7 mph N/A   Partly Cloudy
12:15 PM 35.6 °F 25.2 °F 23.0 °F 60% 29.15 in 10.0 mi West 18.4 mph 33.4 mph N/A   Partly Cloudy
12:35 PM 33.8 °F 23.2 °F 23.0 °F 65% 29.18 in 10.0 mi WSW 17.3 mph 32.2 mph N/A   Mostly Cloudy
12:55 PM 35.6 °F 25.9 °F 23.0 °F 60% 29.20 in 10.0 mi WSW 16.1 mph 31.1 mph N/A   Mostly Cloudy
1:15 PM 35.6 °F 25.5 °F 23.0 °F 60% 29.22 in 10.0 mi WSW 17.3 mph 31.1 mph N/A   Mostly Cloudy
1:35 PM 35.6 °F 26.6 °F 23.0 °F 60% 29.24 in 10.0 mi WSW 13.8 mph 25.3 mph N/A   Mostly Cloudy
1:55 PM 35.6 °F 25.9 °F 23.0 °F 60% 29.26 in 10.0 mi WSW 16.1 mph 35.7 mph N/A   Overcast
2:15 PM 35.6 °F 26.2 °F 23.0 °F 60% 29.28 in 10.0 mi West 15.0 mph 33.4 mph N/A   Overcast
2:35 PM 35.6 °F 25.2 °F 23.0 °F 60% 29.29 in 10.0 mi WSW 18.4 mph 31.1 mph N/A   Mostly Cloudy
2:55 PM 37.4 °F 28.9 °F 24.8 °F 60% 29.30 in 10.0 mi WSW 13.8 mph 33.4 mph N/A   Partly Cloudy
3:15 PM 37.4 °F 27.2 °F 24.8 °F 60% 29.32 in 10.0 mi West 19.6 mph 31.1 mph N/A   Clear
3:35 PM 37.4 °F 28.5 °F 24.8 °F 60% 29.34 in 10.0 mi WSW 15.0 mph 31.1 mph N/A   Clear
3:55 PM 37.4 °F 27.2 °F 26.6 °F 65% 29.36 in 10.0 mi WSW 19.6 mph 34.5 mph N/A   Scattered Clouds
4:15 PM 37.4 °F 28.2 °F 26.6 °F 65% 29.38 in 10.0 mi WSW 16.1 mph 26.5 mph N/A   Partly Cloudy
4:35 PM 37.4 °F 27.5 °F 26.6 °F 65% 29.40 in 10.0 mi WSW 18.4 mph 25.3 mph N/A   Clear
4:55 PM 37.4 °F 29.3 °F 26.6 °F 65% 29.42 in 10.0 mi WSW 12.7 mph 24.2 mph N/A   Clear
5:15 PM 37.4 °F 30.8 °F 26.6 °F 65% 29.44 in 10.0 mi WSW 9.2 mph 21.9 mph N/A   Clear
5:35 PM 37.4 °F 29.3 °F 26.6 °F 65% 29.46 in 10.0 mi SW 12.7 mph 23.0 mph N/A   Clear
5:55 PM 37.4 °F 29.3 °F 26.6 °F 65% 29.49 in 10.0 mi WSW 12.7 mph 23.0 mph N/A   Clear
6:15 PM 37.4 °F 29.8 °F 26.6 °F 65% 29.50 in 10.0 mi WSW 11.5 mph 21.9 mph N/A   Clear
6:35 PM 37.4 °F 30.8 °F 26.6 °F 65% 29.52 in 10.0 mi WSW 9.2 mph 20.7 mph N/A   Clear
6:55 PM 35.6 °F 28.0 °F 26.6 °F 70% 29.54 in 10.0 mi WSW 10.4 mph 19.6 mph N/A   Clear
7:15 PM 35.6 °F 26.6 °F 26.6 °F 70% 29.55 in 10.0 mi WSW 13.8 mph 19.6 mph N/A   Clear
7:35 PM 35.6 °F 28.6 °F 26.6 °F 70% 29.56 in 10.0 mi WSW 9.2 mph 19.6 mph N/A   Clear
7:55 PM 35.6 °F 28.0 °F 26.6 °F 70% 29.58 in 10.0 mi SW 10.4 mph 19.6 mph N/A   Clear
8:15 PM 35.6 °F 27.1 °F 24.8 °F 65% 29.60 in 10.0 mi WSW 12.7 mph 23.0 mph N/A   Clear
8:35 PM 35.6 °F 26.6 °F 24.8 °F 65% 29.63 in 10.0 mi WSW 13.8 mph 21.9 mph N/A   Clear
8:55 PM 35.6 °F 26.6 °F 24.8 °F 65% 29.66 in 10.0 mi SW 13.8 mph 26.5 mph N/A   Clear
9:15 PM 35.6 °F 26.2 °F 24.8 °F 65% 29.68 in 10.0 mi WSW 15.0 mph 24.2 mph N/A   Clear
9:35 PM 35.6 °F 28.6 °F 23.0 °F 60% 29.69 in 10.0 mi WSW 9.2 mph 21.9 mph N/A   Clear
9:55 PM 33.8 °F 25.3 °F 23.0 °F 65% 29.70 in 10.0 mi WSW 11.5 mph 21.9 mph N/A   Clear
10:15 PM 33.8 °F 24.3 °F 23.0 °F 65% 29.71 in 10.0 mi SW 13.8 mph 18.4 mph N/A   Clear
10:35 PM 33.8 °F 26.4 °F 24.8 °F 70% 29.72 in 10.0 mi WSW 9.2 mph 19.6 mph N/A   Clear
10:55 PM 33.8 °F 26.4 °F 23.0 °F 65% 29.73 in 10.0 mi WSW 9.2 mph - N/A   Clear
11:15 PM 33.8 °F 27.7 °F 23.0 °F 65% 29.74 in 10.0 mi WSW 6.9 mph - N/A   Clear
11:35 PM 33.8 °F 27.0 °F 23.0 °F 65% 29.74 in 10.0 mi WSW 8.1 mph - N/A   Clear
11:55 PM 33.8 °F 28.6 °F 23.0 °F 65% 29.76 in 10.0 mi WSW 5.8 mph - N/A   Clear